Weather in Kuloj

Russia / Arkhangel'skaya Oblast'     61°01′44″N   42°30′08″E
temp.,
°C
wind,
m/s
gust,
m/s
humid.,
%
clouds,
%
prec.,
mm/h
press.,
hPa
HPBL,
m
14 april, wed
wed1400:00+10ssw31193100 0.0 1021320
03:00+8s3895100 0.0 1020192
06:00+8ssw399598 0.8 1019248
09:00+12s3127277 0.9 1017413
12:00+18ssw6155499 0.0 10161733
15:00+18ssw6155715 0.1 10152036
18:00+15sw5116999 0.9 10151026
21:00+8nw4993100 5.0 1018527
15 april, thu
thu1500:00+5nnw3886100 1.9 1020618
03:00+5nnw268670 2.1 1022518
06:00+3n388999 0.0 1024567
09:00+5n4662100 0.0 1026814
12:00+7n4647100 0.0 10271293
15:00+8nne463693 0.0 10281495
18:00+6nne46452 0.0 1029949
21:00+2nne28700 0.0 1031179
16 april, fri
fri1600:000nne27750 0.0 1032148
03:00−1ne22730 0.0 103344
06:000ne12675 0.0 103473
09:00+5n11395 0.0 1034553
12:00+8n23315 0.0 10331047
15:00+10nnw23310 0.0 10331320
18:00+8n24440 0.0 1032119
21:00+4nnw22670 0.0 103317
17 april, sat
sat1700:00+2n22805 0.0 103420
03:00+1n11880 0.0 103410
06:00+1nnw23866 0.0 103569
09:00+7nnw35605 0.0 1035643
12:00+10n35455 0.0 10341371
15:00+12nnw34395 0.0 10331631
18:00+10nnw364916 0.0 1032435
21:00+6nw267111 0.0 1032101
18 april, sun
sun1800:00+4nnw26810 0.0 1033120
03:00+2nnw24870 0.0 103378
06:00+2nnw28850 0.0 1034226
09:00+7n24614 0.0 1034674
12:00+10n345024 0.0 10341451
15:00+10ne455191 0.0 10341410
18:00+8ene3460100 0.0 1034796
21:00+4e227734 0.0 103641